RH
84 85 86 86 84 83 84 85 85 86 86 86 85 86 88 91 88 65 32 21 28 59 77 17 14 16 16 19 28 28 60 46 58 45 33 26 22 22 25 32 34 31 38 40 45
83 84 86 86 85 85 85 86 85 84 86 86 85 84 87 90 59 27 29 57 55 78 15 10 10 10 14 16 19 40 44 23 31 26 34 34 36 45 31 32 38 36 33 36 39
80 82 85 85 84 85 85 85 85 84 86 86 88 86 88 87 50 17 56 47 61 65 12 7 8 9 11 12 17 29 27 20 20 21 32 37 37 40 46 35 36 43 38 35 44
81 82 83 83 82 83 84 84 85 85 86 86 88 86 86 65 24 11 71 67 58 24 11 8 11 12 12 14 10 13 15 18 22 26 33 37 41 29 38 42 33 35 35 38 39
81 83 84 84 84 85 86 87 88 86 86 86 85 82 71 42 22 21 68 64 28 13 8 9 12 11 11 15 9 14 13 15 17 22 34 35 39 38 34 30 31 33 35 40 41
83 86 87 87 86 86 87 88 89 86 86 86 81 81 62 32 10 10 15 20 9 9 8 8 11 8 10 13 13 13 12 15 15 21 24 33 37 36 34 29 31 34 38 38 39
85 85 86 87 87 85 88 89 86 85 85 85 79 57 39 20 8 15 11 12 10 8 8 7 8 8 8 12 12 12 15 13 17 19 26 26 38 40 32 29 33 35 36 36 38
85 85 85 86 87 87 88 89 86 83 84 83 79 60 44 12 13 10 10 10 8 7 7 7 7 7 10 10 13 15 16 22 21 21 24 33 49 37 33 34 37 35 34 36 41
85 84 85 86 87 88 89 88 82 78 85 79 81 64 41 20 15 10 9 7 5 5 7 5 6 10 12 14 18 18 24 27 26 21 20 31 45 35 33 35 39 37 36 39 43
85 85 85 86 87 87 89 82 68 85 83 54 38 44 34 22 10 8 9 7 5 5 6 7 10 16 16 17 25 22 20 25 26 22 20 28 40 33 32 36 38 37 40 43 44
85 85 86 86 86 87 84 47 45 65 48 36 28 22 14 13 10 7 8 8 4 6 10 9 18 22 16 12 10 15 16 24 20 17 24 28 34 32 29 30 33 39 41 40 42
85 86 86 85 85 85 89 41 15 14 20 13 16 19 14 14 12 8 8 9 6 10 9 12 20 15 12 10 10 11 19 26 21 20 26 29 31 28 39 38 31 35 37 37 41
84 85 86 86 86 74 40 25 17 17 26 16 14 14 11 11 11 9 7 7 7 9 8 12 16 12 11 9 9 11 14 17 23 22 22 30 44 58 41 34 29 31 32 33 41
84 85 85 87 57 35 17 11 12 10 28 18 16 14 11 10 10 6 5 7 7 8 8 11 10 10 9 9 9 14 10 9 12 25 38 29 58 58 47 37 30 31 32 33 38
84 85 86 88 71 47 15 17 16 16 47 13 14 7 10 12 10 8 5 6 8 7 9 12 11 10 10 9 8 10 9 9 9 15 22 24 29 45 43 43 29 29 31 30 35
85 85 85 57 68 51 32 21 19 32 42 14 8 9 12 10 10 8 6 6 7 8 8 10 7 8 8 8 8 8 9 13 11 16 24 19 24 55 44 34 24 25 26 27 32
86 86 85 62 37 14 23 20 37 37 16 14 9 8 10 12 11 10 8 9 10 12 14 9 8 6 5 9 8 9 24 30 33 26 25 17 18 40 29 24 23 34 32 31 27
85 86 80 54 59 45 36 29 46 22 20 13 12 8 10 10 12 9 9 10 8 8 14 15 13 8 5 8 10 12 17 34 37 35 22 15 22 28 23 24 24 26 26 21 30
86 51 30 31 38 26 34 31 31 24 15 13 13 13 12 9 10 9 10 9 7 7 11 13 14 7 6 7 8 12 20 14 21 22 25 23 21 24 24 25 25 28 26 22 22
87 60 37 15 28 28 36 34 21 14 13 13 15 13 17 10 10 9 10 9 8 7 7 12 18 8 7 7 7 13 12 23 24 36 35 23 32 32 29 25 22 35 33 31 30
76 44 20 14 23 29 27 21 16 12 12 15 16 14 14 15 9 9 9 8 7 6 7 8 15 12 8 10 12 16 17 24 21 27 29 35 35 35 27 24 21 17 23 28 30
51 39 15 10 31 32 29 16 21 11 10 11 11 11 14 16 18 9 8 8 6 6 8 8 17 17 10 9 8 11 13 22 35 28 33 36 32 17 23 22 22 22 23 22 27
70 38 18 16 31 29 22 13 10 10 11 12 11 10 11 17 27 19 10 6 6 6 7 9 13 18 21 10 8 10 10 15 24 22 27 39 32 26 20 20 23 24 27 29 25
66 50 32 28 21 24 24 21 16 10 10 10 11 14 16 17 16 20 16 9 6 6 24 23 17 24 21 18 12 13 10 13 15 24 23 30 30 35 31 35 28 26 24 32 34
62 48 37 43 37 40 36 28 18 17 12 11 12 18 19 24 21 22 19 24 9 17 17 13 25 22 17 12 10 11 11 11 15 17 27 25 34 33 26 26 24 21 18 22 30
59 51 42 40 40 35 36 32 26 15 20 28 26 15 17 28 41 41 32 33 34 17 10 12 31 22 20 14 10 10 10 12 12 12 14 17 30 23 23 30 30 22 22 25 28
52 50 49 46 34 37 32 26 21 15 34 28 30 22 19 31 26 28 25 23 22 34 27 24 30 32 26 19 17 22 18 15 14 12 14 19 27 34 35 32 36 30 23 24 29
Wind_Speed
21 21 21 21 21 21 21 21 22 22 22 20 18 17 15 16 19 4 7 11 5 9 5 5 9 11 12 9 9 3 3 9 15 3 3 15 16 11 22 22 19 8 17 15 25
22 22 23 23 22 21 21 21 21 22 22 20 18 16 14 14 5 10 13 10 7 8 4 6 10 9 9 11 11 6 4 14 16 14 17 13 12 6 7 19 20 19 15 20 22
23 23 23 23 23 22 21 21 21 22 22 20 16 13 12 11 5 10 6 21 11 9 5 10 14 17 12 12 8 13 9 21 14 14 14 9 8 6 9 13 22 23 19 15 20
23 23 23 24 25 24 23 22 22 22 20 19 15 12 12 5 4 3 7 16 15 8 6 7 9 10 9 11 4 10 19 17 15 21 8 7 7 5 7 4 22 19 16 7 11
23 23 23 24 25 24 23 22 22 21 19 17 12 10 6 3 13 3 7 10 7 6 10 12 13 9 12 7 6 9 11 19 23 20 17 18 11 6 6 3 20 19 14 10 8
23 23 23 23 23 24 23 22 21 21 18 14 8 7 3 7 8 12 9 7 8 8 9 14 10 11 12 14 6 3 8 19 15 18 19 21 8 8 6 7 19 18 12 11 10
23 23 23 24 25 25 24 23 23 22 16 10 7 4 6 19 2 7 13 8 9 9 11 14 15 8 11 11 10 6 8 13 15 20 20 23 14 11 14 15 15 15 14 12 12
23 24 25 25 26 25 25 25 25 22 14 9 5 4 10 10 16 12 11 9 10 10 14 13 13 12 8 8 5 6 8 7 10 12 13 14 14 15 15 15 14 15 15 13 10
24 25 25 26 26 26 26 30 27 16 9 5 5 3 11 10 5 11 9 11 10 10 12 16 14 10 9 5 3 6 6 15 6 6 6 8 16 20 18 17 17 17 15 13 11
24 25 26 26 26 26 28 30 6 1 5 7 9 4 8 9 8 11 7 9 10 10 13 11 7 6 5 2 7 8 6 16 12 10 7 9 10 19 19 18 17 15 15 14 13
24 25 26 27 27 22 17 8 3 1 5 10 9 10 18 10 8 9 12 10 11 7 9 9 3 7 12 12 12 11 10 11 7 9 8 8 15 16 16 14 9 10 12 14 13
24 25 27 29 30 25 6 5 8 9 17 15 19 23 22 22 11 14 13 12 11 10 8 7 9 14 17 18 12 10 12 12 14 17 10 9 12 12 9 4 16 13 12 14 10
25 25 26 29 34 10 7 13 15 20 7 24 23 22 20 17 13 12 11 14 9 10 12 12 11 19 21 18 12 11 7 13 13 18 13 12 3 4 12 14 16 17 16 11 16
24 25 24 29 7 8 9 11 17 14 4 15 11 22 20 18 9 16 14 13 7 16 15 12 14 22 21 16 11 7 5 5 4 17 10 12 7 7 20 15 17 19 18 14 18
25 24 23 12 11 7 8 17 19 6 5 10 16 10 10 18 10 12 17 13 14 12 10 15 17 19 20 16 7 8 7 6 8 5 5 10 6 10 17 13 10 13 19 17 21
27 24 22 11 6 14 15 19 3 2 11 9 11 16 18 17 15 10 19 13 11 13 16 13 15 15 16 12 9 6 4 5 6 1 2 8 8 6 16 20 16 14 17 20 23
29 27 16 9 9 1 11 6 1 6 8 7 17 21 20 10 19 19 21 19 17 12 12 16 20 16 12 9 8 4 4 2 4 2 8 8 7 10 20 18 21 14 14 11 24
31 34 12 12 12 12 3 1 7 12 25 18 18 13 17 17 16 19 18 17 20 17 7 9 14 17 16 10 11 8 10 7 7 5 10 12 8 7 22 22 20 16 16 15 10
33 5 7 9 15 6 1 7 7 14 17 20 20 16 11 18 12 18 14 19 19 20 14 10 12 13 11 6 11 11 6 10 3 4 3 5 6 7 13 15 17 17 13 16 16
9 6 10 9 18 8 3 9 11 23 23 22 23 19 19 20 19 21 19 21 19 21 18 11 7 16 11 10 14 12 8 3 4 2 6 6 2 3 6 10 10 13 14 14 14
4 6 10 14 12 6 9 9 16 22 21 21 25 28 24 8 18 16 21 17 23 22 23 19 7 13 13 10 10 2 5 4 7 7 6 2 3 4 10 10 11 9 15 15 16
7 5 5 17 7 5 11 8 15 19 20 24 23 25 24 8 8 20 17 22 21 22 23 23 6 11 17 10 13 9 10 10 7 6 2 6 7 12 11 9 10 8 8 8 11
7 7 8 6 8 10 10 22 25 22 23 26 26 25 23 9 7 9 15 20 21 24 24 15 14 10 7 11 14 15 12 9 6 5 5 5 4 1 8 7 8 10 8 7 8
6 6 4 2 6 11 14 18 20 22 24 26 26 14 17 11 13 12 14 10 25 24 27 13 8 10 9 11 11 12 15 8 9 5 6 7 6 6 9 7 5 9 8 8 8
5 5 8 7 9 18 15 16 24 23 19 20 18 7 16 9 12 9 9 9 15 25 21 14 10 8 8 7 5 8 8 8 8 9 8 5 11 12 13 11 10 8 6 4 4
5 5 6 10 12 13 13 17 22 24 14 8 16 14 22 6 4 6 11 6 4 5 22 14 7 8 4 3 6 6 10 17 17 11 8 7 8 16 15 7 8 8 8 6 5
6 6 3 7 9 9 10 24 19 22 5 7 19 7 8 6 7 5 7 13 8 3 4 11 7 5 5 2 4 7 5 5 7 13 11 10 8 9 8 7 6 8 8 5 3
Wind_Direction
355 352 348 346 346 345 342 341 338 337 335 335 335 330 325 321 306 178 231 227 225 204 136 254 240 208 229 257 148 119 111 111 188 182 82 48 121 118 121 134 154 143 132 143 130
353 350 346 343 342 343 341 337 336 335 333 333 333 329 327 328 286 247 228 213 198 139 215 253 266 247 226 208 196 125 281 153 177 195 111 116 88 42 121 135 117 126 120 129 132
350 348 345 341 340 339 338 335 333 332 330 330 327 324 323 318 288 249 194 212 192 165 258 287 289 290 273 261 207 174 222 104 105 78 107 103 100 143 101 137 143 136 143 146 138
350 346 343 339 337 335 334 331 329 330 328 326 324 323 327 270 258 22 359 184 179 166 240 262 265 268 269 274 201 90 109 117 124 111 108 92 122 182 106 207 130 133 144 139 142
347 343 340 336 333 331 329 327 324 326 326 322 321 328 309 243 247 249 99 105 139 167 220 237 254 260 260 292 110 97 105 108 118 128 139 137 145 159 154 123 126 134 146 147 144
343 340 337 333 331 328 326 323 319 319 321 317 317 328 275 255 247 207 151 152 191 189 219 238 246 251 273 283 115 90 134 126 124 115 112 104 106 96 235 171 131 142 150 162 153
340 338 335 331 328 326 323 319 315 311 310 303 303 266 257 241 249 163 162 184 204 197 227 238 250 266 284 306 134 180 119 118 104 120 121 116 126 116 130 128 140 150 162 172 168
337 335 333 330 326 324 321 315 306 300 291 277 271 256 251 259 239 249 204 179 214 231 233 252 250 256 266 295 145 152 127 116 137 115 145 116 140 142 142 149 159 168 175 175 169
335 333 330 328 325 324 321 312 305 287 255 243 230 208 263 282 213 238 202 178 199 241 249 252 266 252 313 295 234 164 189 129 135 150 138 106 150 157 167 168 174 181 175 160 159
332 330 327 326 323 325 322 304 277 331 201 213 265 332 248 233 171 222 222 198 185 225 243 242 262 235 283 286 198 190 214 149 148 194 144 132 155 165 176 173 181 178 159 162 172
330 328 325 323 319 325 337 341 300 157 239 224 189 227 297 247 193 193 213 201 192 211 209 237 220 238 240 249 253 203 178 116 254 184 136 177 155 172 177 167 171 165 160 166 163
327 326 324 321 315 315 283 243 229 277 303 280 257 241 253 258 229 193 191 188 195 203 201 225 216 240 244 249 230 240 158 183 218 169 122 172 161 165 75 276 174 173 175 174 158
325 325 325 322 313 298 230 252 294 298 275 275 257 266 249 249 216 185 187 192 186 207 210 213 210 235 242 251 237 241 189 201 175 178 166 132 108 98 190 214 202 172 175 181 157
322 323 327 331 313 342 283 301 330 332 272 265 219 232 246 239 194 185 200 192 184 204 218 216 230 227 238 245 218 243 261 285 147 156 180 177 193 190 200 239 199 174 178 173 156
319 320 321 325 300 286 305 334 316 329 282 256 197 173 193 217 194 188 188 205 214 191 202 214 223 225 236 243 217 217 255 216 259 209 187 192 109 223 190 238 188 181 178 174 166
314 314 321 310 202 245 298 298 281 294 250 280 148 175 181 213 210 199 182 213 233 213 221 232 222 229 226 244 249 216 233 298 246 160 9 227 156 177 181 201 202 164 174 181 170
312 306 295 269 235 354 347 306 218 227 289 255 152 163 180 183 196 221 182 195 216 205 221 220 236 240 229 196 244 181 131 294 355 341 228 252 260 201 195 188 189 181 175 180 178
313 305 256 211 221 263 248 250 233 238 239 289 318 177 182 195 193 221 184 192 223 232 212 211 237 231 226 198 196 207 159 157 202 195 240 246 243 230 187 189 189 180 195 193 162
316 274 258 219 206 204 166 226 209 239 256 258 274 268 201 196 178 206 205 194 208 223 224 197 240 247 216 179 168 228 174 204 211 251 324 253 165 19 168 185 184 189 188 202 203
308 278 249 207 157 164 185 236 231 244 269 284 282 287 288 201 196 191 223 192 197 221 224 250 209 232 206 180 235 158 167 242 347 223 285 267 311 224 136 137 147 190 190 206 197
250 277 266 164 145 168 220 224 235 255 277 283 284 291 287 259 199 194 214 191 195 206 226 235 214 249 182 193 201 141 176 180 171 153 194 265 258 215 138 149 156 167 163 198 184
301 274 315 143 164 205 240 239 255 263 269 274 267 266 274 302 295 201 219 193 189 202 223 224 199 237 203 198 183 196 185 169 129 276 223 156 249 161 158 147 122 114 129 117 117
292 273 278 241 205 228 237 238 252 255 254 264 270 269 275 270 305 287 235 194 189 195 224 216 232 242 288 213 187 201 221 187 160 129 235 135 277 89 126 124 127 112 115 153 152
282 294 272 258 258 242 264 272 259 243 252 262 270 278 288 275 268 276 287 257 194 195 215 196 227 169 207 206 177 200 214 194 167 144 229 204 140 54 72 93 74 114 134 162 182
240 270 356 321 324 326 306 290 273 277 257 252 264 283 290 298 294 279 299 344 220 194 205 199 204 205 221 237 270 220 187 213 217 216 158 191 149 181 158 159 150 141 123 158 187
303 348 337 290 279 283 279 280 262 265 280 291 328 203 249 326 28 336 356 360 269 282 194 209 203 159 208 240 235 230 211 206 239 225 245 221 197 191 186 126 141 166 168 177 211
345 337 290 292 306 311 313 313 300 255 259 282 332 254 220 19 269 293 283 282 274 326 246 145 135 111 184 201 333 320 248 220 244 212 196 230 222 136 139 139 148 146 136 145 212